Simultaneous Nadir Overpasses (SNOs) Predictions

Prediction of SNOs between METOP-A and NOAA-19 Satellite Orbit:

Table of predicted SNOs for the next 14.0 days since TLE Epoch: 10/8/2012
Index Date (METOP-A) Time (METOP-A) METOP-A Lat,Lon Date (NOAA-19) Time (NOAA-19) NOAA-19 Lat,Lon Distance(km) Time Diff (sec)
1 10/12/2012 03:11:06 73.35, 125.30 10/12/2012 03:09:53 73.33, 124.71 19.06 73
2 10/12/2012 04:01:51 -73.21, -67.69 10/12/2012 04:00:54 -73.18, -67.73 2.98 57
3 10/12/2012 04:52:31 73.17, 99.57 10/12/2012 04:51:55 73.18, 99.53 1.75 36
4 10/12/2012 05:43:14 -73.13, -93.19 10/12/2012 05:42:58 -73.13, -93.13 1.93 16
5 10/12/2012 06:33:53 73.14, 74.18 10/12/2012 06:33:59 73.13, 74.12 2.49 6
6 10/12/2012 07:24:36 -73.10,-118.59 10/12/2012 07:25:03 -73.13,-118.65 3.27 27
7 10/12/2012 08:15:16 73.07, 48.67 10/12/2012 08:16:03 73.08, 48.71 1.77 47
8 10/12/2012 09:05:58 -73.08,-143.98 10/12/2012 09:07:07 -73.08,-144.05 2.32 69
9 10/12/2012 09:56:49 72.48, 22.12 10/12/2012 09:57:57 72.52, 24.38 75.69 68
10 10/22/2012 00:31:46 -73.20, -15.20 10/22/2012 00:30:31 -73.19, -15.12 2.64 75
11 10/22/2012 01:22:25 73.19, 152.12 10/22/2012 01:21:30 73.20, 152.12 1.11 55
12 10/22/2012 02:13:08 -73.16, -40.61 10/22/2012 02:12:36 -73.19, -40.64 2.91 32
13 10/22/2012 03:03:47 73.16, 126.71 10/22/2012 03:03:34 73.15, 126.71 0.91 13
14 10/22/2012 03:54:30 -73.13, -66.02 10/22/2012 03:54:40 -73.14, -66.04 1.02 10
15 10/22/2012 04:45:08 73.12, 101.30 10/22/2012 04:45:37 73.10, 101.31 2.92 29
16 10/22/2012 05:35:51 -73.10, -91.43 10/22/2012 05:36:43 -73.09, -91.45 1.47 52
17 10/22/2012 06:26:30 73.09, 75.89 10/22/2012 06:27:42 73.10, 75.79 3.39 72




NCC Satellite Simultaneous Nadir Overpasses (SNOs) Prediction Service
